User: anonymous   Login
Location: Ab? ar R?sh Ba?r?
(24.1861°N, 32.8847°E)
Time: 15:09:47
(UTC+00:00)
Language:

Cosmos 1844 Rocket - Orbit

View from above orbital plane
View from above orbital plane
View from above satellite
View from above satellite

Ground track
Ground track

The orbit data is extracted from the following two-line orbital elements,

1 17974U 87041B   22020.32350087 -.00000263  00000-0 -10650-3 0  9990
2 17974  71.0094 334.0394 0014466 341.0351 180.9438 14.17283976794444
Epoch (UTC): 20 January 2022 07:45:50
Eccentricity: 0.0014466
inclination: 71.0094°
perigee height: 824 km
apogee height: 845 km
right ascension of ascending node: 334.0394°
argument of perigee: 341.0351°
revolutions per day: 14.17283976
mean anomaly at epoch: 180.9438°
orbit number at epoch: 79444

The dashed part of the orbit path shows where the satellite is in the earth's shadow,  

DLR